UPS57S ESGG-EGSS

Flight info

Callsign UPS57S
Flight time 1h 51m
Altitude 40000
Route VADIN DCT IRKAM DCT GREFI DCT LONAM DCT BINBO DCT AKOKO N866 KUBAX Z150 MEGEL
Aircraft B748/H-SDE3FGHIM1M2RWXY/LB1

Departure

Time 2026-04-30 20:34
Airport Göteborg Landvetter Airport (ESGG)

Arrival

Time 2026-04-30 22:25
Airport London Stansted Airport (EGSS)
Time Latitude Longitude Altitude Speed Heading
2026-04-30 19:53 57.67211 12.29678 541 ft 0 kts 116°
2026-04-30 19:57 57.67213 12.29670 541 ft 2 kts 112°
2026-04-30 19:57 57.67220 12.29642 547 ft 2 kts 76°
2026-04-30 19:57 57.67221 12.29615 554 ft 2 kts 344°
2026-04-30 19:58 57.67225 12.29619 553 ft 0 kts 21°
2026-04-30 19:58 57.67223 12.29618 553 ft 1 kts 22°
2026-04-30 19:58 57.67208 12.29599 548 ft 3 kts 42°
2026-04-30 19:58 57.67194 12.29565 553 ft 3 kts 68°
2026-04-30 19:59 57.67180 12.29535 553 ft 3 kts 14°
2026-04-30 19:59 57.67170 12.29528 550 ft 8 kts 21°
2026-04-30 19:59 57.67142 12.29498 550 ft 0 kts 24°
2026-04-30 20:28 57.67143 12.29498 540 ft 1 kts 24°
2026-04-30 20:28 57.67186 12.29523 540 ft 5 kts 355°
2026-04-30 20:29 57.67246 12.29340 540 ft 10 kts 296°
2026-04-30 20:30 57.67360 12.29306 541 ft 2 kts 25°
2026-04-30 20:30 57.67446 12.29288 542 ft 0 kts 296°
2026-04-30 20:32 57.67447 12.29284 542 ft 2 kts 295°
2026-04-30 20:32 57.67398 12.28990 540 ft 13 kts 222°
2026-04-30 20:33 57.67365 12.28957 540 ft 0 kts 201°
2026-04-30 20:33 57.67311 12.28913 540 ft 34 kts 205°
2026-04-30 20:33 57.66793 12.28442 534 ft 130 kts 206°
2026-04-30 20:34 57.64543 12.26417 2052 ft 176 kts 211°
2026-04-30 20:34 57.61980 12.24053 2233 ft 234 kts 210°
2026-04-30 20:35 57.60558 12.22781 3098 ft 228 kts 205°
2026-04-30 20:35 57.58964 12.22502 3778 ft 240 kts 176°
2026-04-30 20:35 57.55524 12.22707 4970 ft 264 kts 188°
2026-04-30 20:36 57.53650 12.22163 5025 ft 276 kts 189°
2026-04-30 20:36 57.51773 12.21767 5024 ft 277 kts 187°
2026-04-30 20:36 57.47930 12.21027 5025 ft 278 kts 188°
2026-04-30 20:37 57.46007 12.20610 5022 ft 278 kts 188°
2026-04-30 20:37 57.44107 12.19969 5466 ft 277 kts 205°
2026-04-30 20:37 57.42539 12.18037 6289 ft 276 kts 225°
2026-04-30 20:37 57.41164 12.15513 7025 ft 280 kts 228°
2026-04-30 20:38 57.39811 12.12880 7748 ft 283 kts 228°
2026-04-30 20:38 57.38428 12.10240 8456 ft 287 kts 227°
2026-04-30 20:38 57.37012 12.07599 9163 ft 290 kts 226°
2026-04-30 20:39 57.34141 12.02226 10458 ft 299 kts 226°
2026-04-30 20:39 57.32647 11.99422 10842 ft 313 kts 226°
2026-04-30 20:39 57.31079 11.96491 11176 ft 328 kts 226°
2026-04-30 20:40 57.27698 11.90183 11811 ft 359 kts 226°
2026-04-30 20:40 57.25916 11.86865 12345 ft 367 kts 226°
2026-04-30 20:40 57.24102 11.83492 12982 ft 373 kts 225°
2026-04-30 20:41 57.20390 11.76607 14191 ft 384 kts 225°
2026-04-30 20:41 57.18519 11.73143 14770 ft 388 kts 226°
2026-04-30 20:41 57.16608 11.69610 15376 ft 391 kts 225°
2026-04-30 20:41 57.14680 11.66052 15952 ft 394 kts 226°
2026-04-30 20:42 57.12766 11.62409 16518 ft 396 kts 232°
2026-04-30 20:42 57.11277 11.58131 17079 ft 397 kts 244°
2026-04-30 20:42 57.08887 11.48878 18154 ft 404 kts 244°
2026-04-30 20:43 57.07480 11.44379 18681 ft 408 kts 239°
2026-04-30 20:43 57.05930 11.39992 19121 ft 411 kts 239°
2026-04-30 20:43 57.04434 11.35503 19587 ft 413 kts 241°
2026-04-30 20:44 57.01551 11.26312 20427 ft 418 kts 240°
2026-04-30 20:44 57.00036 11.21722 20835 ft 421 kts 240°
2026-04-30 20:44 56.97019 11.12503 21609 ft 426 kts 241°
2026-04-30 20:45 56.93968 11.03142 22332 ft 430 kts 240°
2026-04-30 20:45 56.92439 10.98500 22670 ft 432 kts 240°
2026-04-30 20:45 56.90884 10.93770 22989 ft 434 kts 241°
2026-04-30 20:46 56.86163 10.79455 23927 ft 441 kts 240°
2026-04-30 20:46 56.84578 10.74674 24164 ft 443 kts 240°
2026-04-30 20:47 56.81364 10.64997 24619 ft 447 kts 240°
2026-04-30 20:47 56.79744 10.60139 24837 ft 449 kts 240°
2026-04-30 20:48 56.76487 10.50396 25260 ft 451 kts 240°
2026-04-30 20:48 56.74848 10.45509 25454 ft 452 kts 240°
2026-04-30 20:48 56.73206 10.40622 25677 ft 453 kts 240°
2026-04-30 20:48 56.71559 10.35732 25879 ft 454 kts 240°
2026-04-30 20:49 56.69906 10.30829 26084 ft 455 kts 240°
2026-04-30 20:49 56.68267 10.25982 26298 ft 456 kts 240°
2026-04-30 20:49 56.66599 10.21060 26487 ft 457 kts 240°
2026-04-30 20:50 56.63242 10.11182 26910 ft 460 kts 240°
2026-04-30 20:50 56.61554 10.06228 27118 ft 462 kts 240°
2026-04-30 20:50 56.59860 10.01269 27333 ft 463 kts 240°
2026-04-30 20:50 56.58156 9.96293 27553 ft 465 kts 240°
2026-04-30 20:51 56.56445 9.91303 27799 ft 466 kts 240°
2026-04-30 20:51 56.53001 9.81295 28257 ft 469 kts 239°
2026-04-30 20:51 56.51270 9.76277 28518 ft 470 kts 239°
2026-04-30 20:52 56.49530 9.71245 28795 ft 472 kts 239°
2026-04-30 20:52 56.47784 9.66208 29052 ft 473 kts 239°
2026-04-30 20:52 56.44270 9.56101 29619 ft 476 kts 239°
2026-04-30 20:53 56.42501 9.51028 29883 ft 478 kts 239°
2026-04-30 20:53 56.40722 9.45938 30184 ft 480 kts 239°
2026-04-30 20:53 56.38932 9.40828 30495 ft 482 kts 239°
2026-04-30 20:54 56.35348 9.30627 31027 ft 486 kts 239°
2026-04-30 20:54 56.33587 9.25631 31284 ft 488 kts 239°
2026-04-30 20:54 56.31778 9.20509 31541 ft 490 kts 239°
2026-04-30 20:55 56.28094 9.10113 32105 ft 493 kts 239°
2026-04-30 20:55 56.26239 9.04894 32381 ft 495 kts 239°
2026-04-30 20:55 56.24377 8.99664 32687 ft 497 kts 239°
2026-04-30 20:56 56.20704 8.89389 33269 ft 501 kts 239°
2026-04-30 20:56 56.18817 8.84126 33689 ft 500 kts 239°
2026-04-30 20:56 56.15054 8.73664 34538 ft 498 kts 239°
2026-04-30 20:57 56.13198 8.68522 34880 ft 497 kts 239°
2026-04-30 20:57 56.11318 8.63320 35221 ft 496 kts 239°
2026-04-30 20:57 56.09442 8.58144 35564 ft 496 kts 238°
2026-04-30 20:58 56.05576 8.47935 36208 ft 494 kts 237°
2026-04-30 20:58 56.03671 8.42825 36520 ft 493 kts 238°
2026-04-30 20:58 56.01754 8.37745 36782 ft 493 kts 237°
2026-04-30 20:58 55.99798 8.32713 37047 ft 493 kts 237°
2026-04-30 20:59 55.95912 8.22649 37541 ft 492 kts 237°
2026-04-30 20:59 55.93976 8.17600 37770 ft 492 kts 237°
2026-04-30 21:00 55.90082 8.07584 38225 ft 491 kts 237°
2026-04-30 21:00 55.86193 7.97571 38644 ft 490 kts 237°
2026-04-30 21:01 55.82322 7.87668 39058 ft 490 kts 237°
2026-04-30 21:01 55.80375 7.82702 39217 ft 489 kts 237°
2026-04-30 21:01 55.76480 7.72786 39516 ft 489 kts 237°
2026-04-30 21:02 55.74529 7.67839 39652 ft 489 kts 236°
2026-04-30 21:02 55.72600 7.62957 39784 ft 488 kts 236°
2026-04-30 21:02 55.70648 7.58024 39915 ft 488 kts 236°
2026-04-30 21:02 55.68694 7.53096 40043 ft 488 kts 236°
2026-04-30 21:03 55.66737 7.48172 40179 ft 488 kts 236°
2026-04-30 21:03 55.64777 7.43251 40299 ft 488 kts 236°
2026-04-30 21:03 55.62815 7.38333 40419 ft 488 kts 236°
2026-04-30 21:04 55.58937 7.28644 40448 ft 483 kts 236°
2026-04-30 21:04 55.53134 7.14214 40448 ft 478 kts 236°
2026-04-30 21:05 55.49282 7.04680 40451 ft 477 kts 236°
2026-04-30 21:05 55.45413 6.95144 40443 ft 477 kts 236°
2026-04-30 21:06 55.41540 6.85633 40445 ft 477 kts 236°
2026-04-30 21:06 55.37685 6.76204 40442 ft 478 kts 236°
2026-04-30 21:07 55.33799 6.66736 40443 ft 478 kts 236°
2026-04-30 21:07 55.29913 6.57303 40443 ft 476 kts 235°
2026-04-30 21:08 55.26023 6.47898 40439 ft 476 kts 235°
2026-04-30 21:08 55.22125 6.38507 40439 ft 476 kts 235°
2026-04-30 21:09 55.18242 6.29190 40437 ft 476 kts 235°
2026-04-30 21:09 55.14329 6.19836 40437 ft 476 kts 235°
2026-04-30 21:10 55.11044 6.12010 40429 ft 476 kts 235°
2026-04-30 21:10 55.07143 6.02748 40429 ft 476 kts 234°
2026-04-30 21:11 55.03221 5.93473 40430 ft 474 kts 234°
2026-04-30 21:11 54.99240 5.84452 40454 ft 474 kts 228°
2026-04-30 21:12 54.94507 5.76395 40418 ft 475 kts 227°
2026-04-30 21:12 54.92668 5.71714 40364 ft 467 kts 254°
2026-04-30 21:12 54.91304 5.66622 40456 ft 467 kts 239°
2026-04-30 21:13 54.89374 5.62071 40454 ft 470 kts 226°
2026-04-30 21:13 54.86926 5.58288 40440 ft 474 kts 217°
2026-04-30 21:13 54.81363 5.52047 40440 ft 477 kts 212°
2026-04-30 21:14 54.75929 5.45453 40440 ft 476 kts 223°
2026-04-30 21:14 54.71356 5.37266 40427 ft 474 kts 229°
2026-04-30 21:15 54.66738 5.29170 40425 ft 471 kts 223°
2026-04-30 21:15 54.61961 5.21402 40409 ft 471 kts 226°
2026-04-30 21:16 54.57334 5.13496 40403 ft 471 kts 224°
2026-04-30 21:16 54.52590 5.05709 40402 ft 471 kts 225°
2026-04-30 21:17 54.47882 4.97823 40400 ft 471 kts 224°
2026-04-30 21:17 54.43149 4.90031 40388 ft 472 kts 224°
2026-04-30 21:18 54.38422 4.82213 40385 ft 472 kts 224°
2026-04-30 21:18 54.33670 4.74415 40383 ft 471 kts 224°
2026-04-30 21:19 54.28960 4.66695 40378 ft 472 kts 224°
2026-04-30 21:19 54.24210 4.58941 40390 ft 473 kts 224°
2026-04-30 21:20 54.19445 4.51189 40378 ft 472 kts 224°
2026-04-30 21:20 54.14674 4.43453 40373 ft 472 kts 224°
2026-04-30 21:21 54.09904 4.35743 40371 ft 472 kts 224°
2026-04-30 21:22 54.02771 4.24263 40368 ft 472 kts 223°
2026-04-30 21:23 53.93248 4.09025 40354 ft 467 kts 223°
2026-04-30 21:23 53.86139 3.97714 40345 ft 467 kts 223°
2026-04-30 21:24 53.81275 3.90545 40345 ft 466 kts 219°
2026-04-30 21:24 53.76260 3.83554 40348 ft 466 kts 219°
2026-04-30 21:25 53.68706 3.73132 40344 ft 466 kts 219°
2026-04-30 21:26 53.61166 3.62764 40339 ft 467 kts 218°
2026-04-30 21:27 53.53637 3.52458 40341 ft 463 kts 218°
2026-04-30 21:27 53.48626 3.45628 40335 ft 463 kts 218°
2026-04-30 21:28 53.41114 3.35429 40333 ft 462 kts 217°
2026-04-30 21:28 53.35588 3.29973 40312 ft 462 kts 204°
2026-04-30 21:29 53.32705 3.27793 40293 ft 460 kts 204°
2026-04-30 21:30 53.18377 3.15654 40271 ft 462 kts 206°
2026-04-30 21:31 53.04025 3.03533 39504 ft 469 kts 206°
2026-04-30 21:32 52.98209 2.98645 38397 ft 467 kts 206°
2026-04-30 21:32 52.95316 2.96230 37866 ft 464 kts 207°
2026-04-30 21:32 52.92595 2.93326 37353 ft 464 kts 217°
2026-04-30 21:32 52.90169 2.89790 36805 ft 466 kts 222°
2026-04-30 21:33 52.87883 2.85969 36258 ft 467 kts 224°
2026-04-30 21:33 52.83197 2.78510 35126 ft 469 kts 218°
2026-04-30 21:33 52.80702 2.75018 34575 ft 471 kts 219°
2026-04-30 21:34 52.78289 2.71435 33948 ft 473 kts 221°
2026-04-30 21:34 52.73452 2.64031 32744 ft 476 kts 220°
2026-04-30 21:34 52.70967 2.60400 32096 ft 477 kts 219°
2026-04-30 21:35 52.68486 2.56745 31462 ft 480 kts 220°
2026-04-30 21:35 52.66014 2.53036 30794 ft 481 kts 220°
2026-04-30 21:35 52.63532 2.49329 30102 ft 482 kts 220°
2026-04-30 21:35 52.61041 2.45655 29416 ft 478 kts 219°
2026-04-30 21:36 52.58574 2.42024 28761 ft 473 kts 219°
2026-04-30 21:36 52.56142 2.38430 28090 ft 468 kts 220°
2026-04-30 21:37 52.48989 2.27900 26158 ft 454 kts 219°
2026-04-30 21:37 52.46646 2.24462 25523 ft 450 kts 219°
2026-04-30 21:37 52.44348 2.21092 24888 ft 447 kts 219°
2026-04-30 21:37 52.42008 2.17671 24245 ft 444 kts 219°
2026-04-30 21:38 52.39712 2.14318 23572 ft 441 kts 219°
2026-04-30 21:38 52.37464 2.11040 22967 ft 436 kts 219°
2026-04-30 21:38 52.35255 2.07679 22412 ft 432 kts 226°
2026-04-30 21:38 52.33527 2.03673 22211 ft 433 kts 240°
2026-04-30 21:39 52.32309 1.99175 21761 ft 433 kts 248°
2026-04-30 21:39 52.31348 1.94528 21154 ft 431 kts 250°
2026-04-30 21:39 52.30412 1.89884 20537 ft 427 kts 248°
2026-04-30 21:39 52.29284 1.85426 19937 ft 422 kts 243°
2026-04-30 21:40 52.28014 1.81121 19357 ft 419 kts 242°
2026-04-30 21:40 52.26814 1.76807 18802 ft 416 kts 244°
2026-04-30 21:40 52.25712 1.72455 18199 ft 413 kts 245°
2026-04-30 21:40 52.24602 1.68155 17702 ft 410 kts 244°
2026-04-30 21:41 52.23449 1.63909 16979 ft 411 kts 243°
2026-04-30 21:41 52.22294 1.59674 16499 ft 405 kts 244°
2026-04-30 21:41 52.21195 1.55553 16028 ft 400 kts 244°
2026-04-30 21:41 52.20080 1.51355 15525 ft 395 kts 244°
2026-04-30 21:42 52.18997 1.47332 15089 ft 390 kts 243°
2026-04-30 21:42 52.17907 1.43307 14611 ft 386 kts 243°
2026-04-30 21:42 52.16828 1.39311 14132 ft 383 kts 243°
2026-04-30 21:42 52.15759 1.35346 13656 ft 378 kts 243°
2026-04-30 21:43 52.14702 1.31445 13200 ft 374 kts 243°
2026-04-30 21:43 52.13669 1.27639 12742 ft 369 kts 243°
2026-04-30 21:43 52.12634 1.23831 12316 ft 365 kts 243°
2026-04-30 21:43 52.11694 1.20005 11920 ft 363 kts 250°
2026-04-30 21:44 52.11037 1.16089 11672 ft 355 kts 252°
2026-04-30 21:44 52.10418 1.12250 11428 ft 347 kts 252°
2026-04-30 21:44 52.09802 1.08496 11178 ft 340 kts 251°
2026-04-30 21:44 52.09184 1.04815 10931 ft 334 kts 251°
2026-04-30 21:45 52.08577 1.01201 10689 ft 329 kts 251°
2026-04-30 21:45 52.07983 0.97639 10485 ft 324 kts 251°
2026-04-30 21:45 52.07398 0.94131 10248 ft 319 kts 251°
2026-04-30 21:45 52.06817 0.90670 10021 ft 315 kts 250°
2026-04-30 21:46 52.06243 0.87266 9787 ft 310 kts 250°
2026-04-30 21:46 52.05677 0.83904 9560 ft 306 kts 250°
2026-04-30 21:46 52.05118 0.80588 9347 ft 302 kts 250°
2026-04-30 21:46 52.04570 0.77353 9118 ft 299 kts 250°
2026-04-30 21:47 52.03819 0.74274 8928 ft 288 kts 232°
2026-04-30 21:47 52.02583 0.71779 8733 ft 281 kts 223°
2026-04-30 21:47 52.01232 0.69518 8538 ft 277 kts 221°
2026-04-30 21:47 51.99864 0.67339 8367 ft 274 kts 220°
2026-04-30 21:48 51.98505 0.65201 8181 ft 270 kts 220°
2026-04-30 21:48 51.97160 0.63091 8030 ft 267 kts 220°
2026-04-30 21:48 51.95809 0.60979 7642 ft 273 kts 220°
2026-04-30 21:48 51.94429 0.58837 7337 ft 276 kts 220°
2026-04-30 21:49 51.93035 0.56681 7043 ft 277 kts 220°
2026-04-30 21:49 51.91765 0.54721 6790 ft 278 kts 220°
2026-04-30 21:49 51.90361 0.52551 6511 ft 279 kts 220°
2026-04-30 21:49 51.88952 0.50385 6242 ft 279 kts 220°
2026-04-30 21:50 51.87535 0.48220 5974 ft 279 kts 220°
2026-04-30 21:50 51.86112 0.46074 5694 ft 279 kts 220°
2026-04-30 21:50 51.84690 0.43944 5420 ft 278 kts 220°
2026-04-30 21:50 51.83261 0.41816 5150 ft 278 kts 220°
2026-04-30 21:51 51.81859 0.39736 4890 ft 277 kts 220°
2026-04-30 21:51 51.80442 0.37625 4617 ft 277 kts 220°
2026-04-30 21:51 51.79031 0.35504 4339 ft 276 kts 220°
2026-04-30 21:51 51.77633 0.33366 4045 ft 276 kts 219°
2026-04-30 21:52 51.76248 0.31219 3796 ft 276 kts 220°
2026-04-30 21:52 51.74873 0.29052 3521 ft 275 kts 219°
2026-04-30 21:52 51.73513 0.26867 3241 ft 276 kts 220°
2026-04-30 21:52 51.72161 0.24671 2963 ft 276 kts 220°
2026-04-30 21:53 51.70889 0.22409 2905 ft 271 kts 233°
2026-04-30 21:53 51.70297 0.19540 2911 ft 273 kts 262°
2026-04-30 21:53 51.70611 0.16544 2917 ft 274 kts 291°
2026-04-30 21:53 51.71749 0.14144 2921 ft 269 kts 322°
2026-04-30 21:54 51.73396 0.12751 2933 ft 269 kts 338°
2026-04-30 21:54 51.75106 0.11540 2932 ft 267 kts 333°
2026-04-30 21:54 51.76718 0.10064 2919 ft 267 kts 335°
2026-04-30 21:54 51.78481 0.09389 2749 ft 263 kts
2026-04-30 21:55 51.80220 0.10117 2519 ft 254 kts 36°
2026-04-30 21:55 51.81627 0.11735 2519 ft 250 kts 42°
2026-04-30 21:55 51.83030 0.13424 2529 ft 251 kts 43°
2026-04-30 21:55 51.84441 0.15126 2523 ft 254 kts 43°
2026-04-30 21:56 51.85859 0.16828 2523 ft 254 kts 43°
2026-04-30 21:56 51.87252 0.18505 2522 ft 251 kts 43°
2026-04-30 21:56 51.88636 0.20192 2522 ft 247 kts 45°
2026-04-30 21:56 51.89952 0.21984 2516 ft 247 kts 47°
2026-04-30 21:57 51.91247 0.23819 2516 ft 246 kts 48°
2026-04-30 21:57 51.92524 0.25655 2521 ft 245 kts 48°
2026-04-30 21:57 51.93805 0.27490 2520 ft 246 kts 47°
2026-04-30 21:57 51.95090 0.29331 2521 ft 246 kts 47°
2026-04-30 21:58 51.96366 0.31172 2521 ft 246 kts 48°
2026-04-30 21:58 51.97216 0.32400 2520 ft 246 kts 48°
2026-04-30 21:58 51.98497 0.34255 2516 ft 248 kts 48°
2026-04-30 21:58 52.00201 0.36714 2518 ft 247 kts 48°
2026-04-30 21:59 52.01491 0.38565 2518 ft 248 kts 48°
2026-04-30 21:59 52.02369 0.39822 2516 ft 249 kts 48°
2026-04-30 21:59 52.03667 0.41675 2520 ft 248 kts 47°
2026-04-30 22:00 52.06253 0.45393 2508 ft 250 kts 49°
2026-04-30 22:00 52.08835 0.49079 2505 ft 248 kts 48°
2026-04-30 22:00 52.10133 0.50933 2504 ft 249 kts 48°
2026-04-30 22:01 52.11436 0.52786 2518 ft 249 kts 48°
2026-04-30 22:01 52.12743 0.54646 2516 ft 248 kts 48°
2026-04-30 22:01 52.13865 0.56683 2516 ft 235 kts 71°
2026-04-30 22:01 52.14175 0.59185 2531 ft 223 kts 103°
2026-04-30 22:02 52.13622 0.61431 2529 ft 211 kts 134°
2026-04-30 22:02 52.12434 0.62695 2542 ft 210 kts 163°
2026-04-30 22:02 52.11013 0.63287 2532 ft 211 kts 164°
2026-04-30 22:02 52.09559 0.63660 2534 ft 216 kts 183°
2026-04-30 22:03 52.08064 0.63277 2523 ft 217 kts 185°
2026-04-30 22:03 52.06570 0.62868 2525 ft 218 kts 185°
2026-04-30 22:03 52.05075 0.62451 2527 ft 217 kts 185°
2026-04-30 22:03 52.03587 0.62038 2520 ft 218 kts 185°
2026-04-30 22:04 52.02096 0.61623 2525 ft 217 kts 185°
2026-04-30 22:04 52.00597 0.61205 2522 ft 219 kts 185°
2026-04-30 22:04 51.97718 0.59488 2520 ft 228 kts 209°
2026-04-30 22:05 51.96541 0.57715 2521 ft 232 kts 221°
2026-04-30 22:05 51.95484 0.55702 2521 ft 237 kts 227°
2026-04-30 22:05 51.94718 0.53338 2489 ft 245 kts 245°
2026-04-30 22:05 51.94629 0.50535 2491 ft 260 kts 281°
2026-04-30 22:06 51.95663 0.48123 2492 ft 268 kts 323°
2026-04-30 22:06 51.99050 0.48222 2473 ft 247 kts 48°
2026-04-30 22:06 51.99774 0.50508 2502 ft 222 kts 99°
2026-04-30 22:07 51.98901 0.52152 2536 ft 214 kts 183°
2026-04-30 22:07 51.97782 0.50562 2698 ft 224 kts 230°
2026-04-30 22:07 51.96688 0.48751 2953 ft 228 kts 201°
2026-04-30 22:07 51.95237 0.47953 2936 ft 218 kts 188°
2026-04-30 22:08 51.93727 0.47484 2893 ft 231 kts 185°
2026-04-30 22:08 51.92002 0.47044 2883 ft 271 kts 185°
2026-04-30 22:08 51.90070 0.46585 2857 ft 284 kts 185°
2026-04-30 22:08 51.88095 0.46129 2801 ft 288 kts 185°
2026-04-30 22:09 51.86103 0.45672 2724 ft 289 kts 185°
2026-04-30 22:09 51.84130 0.44956 2625 ft 295 kts 200°
2026-04-30 22:09 51.82443 0.43073 2541 ft 302 kts 217°
2026-04-30 22:09 51.80957 0.40637 2522 ft 305 kts 222°
2026-04-30 22:10 51.79532 0.38076 2526 ft 306 kts 224°
2026-04-30 22:10 51.78121 0.35482 2525 ft 305 kts 224°
2026-04-30 22:10 51.76722 0.32889 2524 ft 308 kts 224°
2026-04-30 22:10 51.75314 0.30290 2523 ft 307 kts 224°
2026-04-30 22:11 51.72514 0.25102 2518 ft 307 kts 224°
2026-04-30 22:11 51.71128 0.22551 2520 ft 307 kts 224°
2026-04-30 22:11 51.69716 0.19957 2520 ft 307 kts 227°
2026-04-30 22:12 51.68746 0.16851 2504 ft 317 kts 252°
2026-04-30 22:12 51.68650 0.13258 2505 ft 328 kts 276°
2026-04-30 22:12 51.69444 0.09778 2503 ft 336 kts 296°
2026-04-30 22:12 51.70683 0.06622 2500 ft 327 kts 303°
2026-04-30 22:13 51.71986 0.03700 2512 ft 315 kts 304°
2026-04-30 22:13 51.73272 0.00911 2498 ft 305 kts 304°
2026-04-30 22:13 51.74757 -0.01428 2532 ft 296 kts 329°
2026-04-30 22:13 51.76656 -0.02467 2530 ft 284 kts 359°
2026-04-30 22:14 51.78534 -0.02050 2524 ft 266 kts 28°
2026-04-30 22:14 51.80016 -0.00472 2519 ft 245 kts 56°
2026-04-30 22:14 51.80753 0.01840 2514 ft 231 kts 86°
2026-04-30 22:14 51.80617 0.04312 2527 ft 218 kts 117°
2026-04-30 22:15 51.79679 0.06141 2528 ft 212 kts 149°
2026-04-30 22:15 51.78265 0.06734 2530 ft 216 kts 181°
2026-04-30 22:15 51.76840 0.05893 2534 ft 227 kts 211°
2026-04-30 22:15 51.75627 0.04212 2523 ft 230 kts 218°
2026-04-30 22:16 51.74502 0.02402 2522 ft 231 kts 217°
2026-04-30 22:16 51.73272 0.00710 2513 ft 229 kts 212°
2026-04-30 22:17 51.69509 -0.03932 2540 ft 229 kts 211°
2026-04-30 22:17 51.68245 -0.05487 2542 ft 229 kts 211°
2026-04-30 22:17 51.65713 -0.08591 2541 ft 228 kts 214°
2026-04-30 22:18 51.64794 -0.10733 2553 ft 243 kts 246°
2026-04-30 22:18 51.65466 -0.16110 2558 ft 264 kts 310°
2026-04-30 22:19 51.68751 -0.18203 2553 ft 261 kts 13°
2026-04-30 22:19 51.70391 -0.17155 2561 ft 249 kts 45°
2026-04-30 22:19 51.71587 -0.12560 2567 ft 221 kts 104°
2026-04-30 22:20 51.71228 -0.10186 2551 ft 217 kts 111°
2026-04-30 22:20 51.70289 -0.05622 2552 ft 224 kts 92°
2026-04-30 22:20 51.70771 -0.03179 2548 ft 238 kts 62°
2026-04-30 22:21 51.71963 -0.01229 2541 ft 247 kts 48°
2026-04-30 22:21 51.73233 0.00615 2516 ft 245 kts 49°
2026-04-30 22:21 51.74489 0.02485 2517 ft 245 kts 49°
2026-04-30 22:21 51.75740 0.04359 2518 ft 245 kts 49°
2026-04-30 22:22 51.76989 0.06233 2524 ft 245 kts 49°
2026-04-30 22:22 51.78239 0.08103 2519 ft 242 kts 49°
2026-04-30 22:22 51.79437 0.09889 2520 ft 224 kts 49°
2026-04-30 22:22 51.80544 0.11532 2357 ft 210 kts 49°
2026-04-30 22:23 51.81580 0.13075 2080 ft 194 kts 52°
2026-04-30 22:23 51.82514 0.14490 1816 ft 177 kts 52°
2026-04-30 22:23 51.83405 0.15822 1591 ft 171 kts 51°
2026-04-30 22:23 51.84276 0.17139 1361 ft 172 kts 50°
2026-04-30 22:24 51.85115 0.18395 1107 ft 155 kts 48°
2026-04-30 22:24 51.85874 0.19535 909 ft 149 kts 47°
2026-04-30 22:24 51.86628 0.20664 698 ft 145 kts 46°
2026-04-30 22:24 51.87377 0.21776 426 ft 143 kts 46°
2026-04-30 22:25 51.88071 0.22832 356 ft 127 kts 44°
2026-04-30 22:25 51.88490 0.23462 354 ft 39 kts 43°
2026-04-30 22:25 51.88686 0.23759 355 ft 32 kts 41°
2026-04-30 22:25 51.88822 0.24005 355 ft 28 kts 57°
2026-04-30 22:26 51.88919 0.24432 357 ft 10 kts 87°
2026-04-30 22:26 51.88915 0.24574 360 ft 12 kts 65°
2026-04-30 22:26 51.88967 0.24667 362 ft 11 kts 41°
2026-04-30 22:27 51.89026 0.24755 362 ft 9 kts 56°
2026-04-30 22:27 51.89026 0.24834 358 ft 5 kts 117°
2026-04-30 22:27 51.88945 0.25007 360 ft 13 kts 130°
2026-04-30 22:28 51.88951 0.25145 352 ft 7 kts 43°
2026-04-30 22:28 51.88958 0.25156 355 ft 0 kts 41°